GLO1027 SBRJ-SBSP

Flight info

Callsign GLO1027
Flight time 0h 48m
Altitude 30000
Route NAXOP UZ45 IBDAL
Aircraft B738/M-SDE2E3FGHIRWXY/LB1

Departure

Time 2026-04-30 17:57
Airport Santos Dumont Airport (SBRJ)

Arrival

Time 2026-04-30 18:46
Airport Congonhas–Deputado Freitas Nobre Airport (SBSP)
Time Latitude Longitude Altitude Speed Heading
2026-04-30 17:44 -22.91164 -43.16591 21 ft 0 kts 265°
2026-04-30 17:48 -22.91166 -43.16530 21 ft 2 kts 311°
2026-04-30 17:48 -22.91190 -43.16518 21 ft 0 kts 355°
2026-04-30 17:53 -22.90877 -43.16558 21 ft 10 kts 357°
2026-04-30 17:54 -22.90629 -43.16560 21 ft 7 kts 357°
2026-04-30 17:55 -22.90480 -43.16409 19 ft 14 kts 75°
2026-04-30 17:56 -22.91204 -43.16278 22 ft 127 kts 176°
2026-04-30 17:57 -22.94231 -43.15283 1977 ft 143 kts 129°
2026-04-30 17:58 -22.97135 -43.15095 2904 ft 198 kts 224°
2026-04-30 17:59 -23.02720 -43.18435 5001 ft 259 kts 213°
2026-04-30 18:00 -23.09269 -43.22720 8218 ft 280 kts 212°
2026-04-30 18:00 -23.14343 -43.26029 10502 ft 294 kts 213°
2026-04-30 18:01 -23.18041 -43.28448 11373 ft 325 kts 213°
2026-04-30 18:02 -23.24266 -43.32503 12789 ft 362 kts 213°
2026-04-30 18:02 -23.30769 -43.36842 14743 ft 369 kts 219°
2026-04-30 18:03 -23.34776 -43.43721 16563 ft 368 kts 255°
2026-04-30 18:04 -23.36689 -43.51849 18285 ft 374 kts 257°
2026-04-30 18:05 -23.39269 -43.62985 20364 ft 384 kts 257°
2026-04-30 18:06 -23.41912 -43.74357 22320 ft 393 kts 258°
2026-04-30 18:07 -23.44608 -43.85982 24063 ft 403 kts 258°
2026-04-30 18:08 -23.46682 -43.94934 25286 ft 410 kts 258°
2026-04-30 18:09 -23.49475 -44.07039 27314 ft 406 kts 258°
2026-04-30 18:10 -23.52198 -44.18881 29276 ft 400 kts 258°
2026-04-30 18:11 -23.54864 -44.30515 31091 ft 392 kts 258°
2026-04-30 18:11 -23.56821 -44.39081 31995 ft 392 kts 258°
2026-04-30 18:13 -23.60089 -44.53428 32007 ft 388 kts 258°
2026-04-30 18:14 -23.63349 -44.67843 32005 ft 389 kts 258°
2026-04-30 18:15 -23.67240 -44.85051 32004 ft 387 kts 258°
2026-04-30 18:16 -23.69824 -44.96561 32006 ft 386 kts 258°
2026-04-30 18:17 -23.71121 -45.02381 32002 ft 387 kts 258°
2026-04-30 18:17 -23.72409 -45.08149 31998 ft 374 kts 258°
2026-04-30 18:18 -23.73033 -45.10929 31709 ft 366 kts 258°
2026-04-30 18:18 -23.73638 -45.13662 31065 ft 367 kts 258°
2026-04-30 18:18 -23.74242 -45.16375 30532 ft 364 kts 259°
2026-04-30 18:18 -23.74840 -45.19047 30032 ft 361 kts 259°
2026-04-30 18:19 -23.75429 -45.21698 29549 ft 357 kts 259°
2026-04-30 18:19 -23.76028 -45.24385 29052 ft 353 kts 259°
2026-04-30 18:19 -23.76618 -45.27045 28562 ft 350 kts 259°
2026-04-30 18:19 -23.77193 -45.29641 28086 ft 346 kts 259°
2026-04-30 18:20 -23.77757 -45.32188 27620 ft 343 kts 259°
2026-04-30 18:20 -23.78318 -45.34737 27156 ft 339 kts 259°
2026-04-30 18:20 -23.78870 -45.37244 26699 ft 336 kts 259°
2026-04-30 18:20 -23.79405 -45.39711 26248 ft 332 kts 261°
2026-04-30 18:21 -23.79717 -45.42174 26058 ft 321 kts 266°
2026-04-30 18:21 -23.79870 -45.44581 26054 ft 315 kts 268°
2026-04-30 18:21 -23.79989 -45.47027 26058 ft 322 kts 268°
2026-04-30 18:21 -23.80108 -45.49512 26057 ft 333 kts 268°
2026-04-30 18:22 -23.80241 -45.52085 26056 ft 340 kts 268°
2026-04-30 18:22 -23.80511 -45.57269 26054 ft 336 kts 268°
2026-04-30 18:22 -23.80642 -45.59832 26052 ft 333 kts 268°
2026-04-30 18:23 -23.80768 -45.62345 26051 ft 334 kts 268°
2026-04-30 18:23 -23.80895 -45.64909 26049 ft 336 kts 268°
2026-04-30 18:23 -23.81022 -45.67459 26045 ft 336 kts 268°
2026-04-30 18:23 -23.81155 -45.70033 26042 ft 335 kts 268°
2026-04-30 18:24 -23.81416 -45.75147 26038 ft 334 kts 268°
2026-04-30 18:24 -23.81547 -45.77683 25818 ft 331 kts 268°
2026-04-30 18:24 -23.81672 -45.80165 25381 ft 328 kts 268°
2026-04-30 18:25 -23.81796 -45.82663 24930 ft 325 kts 268°
2026-04-30 18:25 -23.82044 -45.87672 24024 ft 319 kts 268°
2026-04-30 18:25 -23.82164 -45.90102 23587 ft 317 kts 268°
2026-04-30 18:26 -23.82412 -45.95002 22702 ft 322 kts 268°
2026-04-30 18:26 -23.82534 -45.97495 22253 ft 324 kts 268°
2026-04-30 18:26 -23.82655 -45.99948 21818 ft 322 kts 268°
2026-04-30 18:27 -23.82896 -46.04852 20939 ft 317 kts 268°
2026-04-30 18:27 -23.83012 -46.07278 20512 ft 315 kts 268°
2026-04-30 18:28 -23.83238 -46.12065 19670 ft 312 kts 268°
2026-04-30 18:28 -23.83353 -46.14444 19252 ft 310 kts 268°
2026-04-30 18:28 -23.83582 -46.19127 18393 ft 307 kts 268°
2026-04-30 18:29 -23.83697 -46.21442 17978 ft 307 kts 268°
2026-04-30 18:29 -23.84040 -46.28535 16701 ft 313 kts 268°
2026-04-30 18:30 -23.84264 -46.33268 15849 ft 311 kts 267°
2026-04-30 18:30 -23.84486 -46.38004 15001 ft 307 kts 267°
2026-04-30 18:31 -23.84593 -46.40302 14589 ft 305 kts 267°
2026-04-30 18:31 -23.84808 -46.44916 13780 ft 303 kts 267°
2026-04-30 18:32 -23.85018 -46.49517 12950 ft 301 kts 267°
2026-04-30 18:32 -23.85123 -46.51776 12552 ft 299 kts 267°
2026-04-30 18:32 -23.85331 -46.56292 11751 ft 296 kts 267°
2026-04-30 18:33 -23.85433 -46.58563 11364 ft 295 kts 268°
2026-04-30 18:33 -23.84545 -46.62817 10563 ft 293 kts 306°
2026-04-30 18:33 -23.83061 -46.64344 10174 ft 293 kts 323°
2026-04-30 18:34 -23.81341 -46.65572 9901 ft 286 kts 326°
2026-04-30 18:34 -23.77987 -46.67869 9212 ft 281 kts 327°
2026-04-30 18:34 -23.76348 -46.69001 9104 ft 269 kts 326°
2026-04-30 18:35 -23.74784 -46.70074 9115 ft 264 kts 327°
2026-04-30 18:35 -23.73196 -46.71170 9124 ft 273 kts 326°
2026-04-30 18:35 -23.71579 -46.72300 9034 ft 277 kts 326°
2026-04-30 18:36 -23.68382 -46.74520 8490 ft 269 kts 326°
2026-04-30 18:36 -23.66962 -46.75834 8095 ft 267 kts 306°
2026-04-30 18:36 -23.66219 -46.79662 7351 ft 264 kts 261°
2026-04-30 18:37 -23.66601 -46.81615 7066 ft 260 kts 259°
2026-04-30 18:37 -23.66994 -46.83517 6952 ft 252 kts 259°
2026-04-30 18:37 -23.67375 -46.85406 6379 ft 262 kts 262°
2026-04-30 18:37 -23.67302 -46.87396 5992 ft 257 kts 292°
2026-04-30 18:38 -23.66252 -46.88823 5915 ft 236 kts 330°
2026-04-30 18:38 -23.64713 -46.89200 5891 ft 217 kts
2026-04-30 18:38 -23.63251 -46.88967 5877 ft 206 kts 11°
2026-04-30 18:38 -23.61843 -46.88675 5878 ft 206 kts
2026-04-30 18:39 -23.60397 -46.88434 5876 ft 209 kts
2026-04-30 18:39 -23.58947 -46.88171 5857 ft 208 kts
2026-04-30 18:39 -23.57520 -46.87911 5835 ft 207 kts
2026-04-30 18:39 -23.56138 -46.87392 5830 ft 210 kts 37°
2026-04-30 18:40 -23.55258 -46.86109 5832 ft 215 kts 68°
2026-04-30 18:40 -23.54819 -46.84520 5831 ft 217 kts 76°
2026-04-30 18:40 -23.54414 -46.82990 5835 ft 204 kts 68°
2026-04-30 18:40 -23.53884 -46.81691 5798 ft 194 kts 65°
2026-04-30 18:41 -23.53368 -46.80328 5648 ft 193 kts 69°
2026-04-30 18:41 -23.52905 -46.78956 5475 ft 191 kts 71°
2026-04-30 18:41 -23.52464 -46.77622 5309 ft 185 kts 71°
2026-04-30 18:41 -23.52019 -46.76257 4918 ft 189 kts 72°
2026-04-30 18:42 -23.51715 -46.74884 4645 ft 186 kts 91°
2026-04-30 18:42 -23.52772 -46.72488 4508 ft 184 kts 141°
2026-04-30 18:42 -23.53884 -46.71732 4319 ft 188 kts 151°
2026-04-30 18:45 -23.61600 -46.66445 2697 ft 134 kts 146°
2026-04-30 18:45 -23.62369 -46.65870 2594 ft 120 kts 147°
2026-04-30 18:45 -23.62868 -46.65513 2612 ft 53 kts 146°
2026-04-30 18:46 -23.63080 -46.65375 2619 ft 18 kts 168°
2026-04-30 18:46 -23.63180 -46.65415 2619 ft 15 kts 266°
2026-04-30 18:46 -23.63100 -46.65493 2616 ft 16 kts 328°
2026-04-30 18:46 -23.63001 -46.65528 2613 ft 12 kts 337°
2026-04-30 18:47 -23.62920 -46.65580 2610 ft 14 kts 327°
2026-04-30 18:47 -23.62832 -46.65641 2607 ft 15 kts 327°
2026-04-30 18:47 -23.62734 -46.65707 2603 ft 17 kts 327°
2026-04-30 18:47 -23.62644 -46.65770 2600 ft 10 kts 327°
2026-04-30 18:48 -23.62637 -46.65826 2598 ft 2 kts 238°
2026-04-30 18:48 -23.62649 -46.65845 2598 ft 3 kts 237°
2026-04-30 18:48 -23.62660 -46.65863 2598 ft 0 kts 236°